Abilene, TX

5:20 PM CDT on August 31, 2016 (GMT -0500)
Abilene Regional

Weather History for KABI - March, 2013

Change the Weather History Date:

Tuesday, March 5, 2013

  Actual Average Record
Temperature  
Mean Temperature 44 °F 53 °F  
Max Temperature 56 °F 65 °F 93 °F (1991)
Min Temperature 31 °F 41 °F 16 °F (1989)
Degree Days  
Heating Degree Days 21 12  
Month to date heating degree days 59 64  
Since 1 July heating degree days 1894 2197  
Cooling Degree Days 0 0  
Month to date cooling degree days 3 0  
Year to date cooling degree days 9 5  
Moisture  
Dew Point 17 °F    
Average Humidity 42    
Maximum Humidity 70    
Minimum Humidity 14    
Precipitation  
Precipitation 0.00 in 0.06 in 0.76 in (1892)
Month to date precipitation 0.00 0.28  
Year to date precipitation 1.89 2.66  
Sea Level Pressure  
Sea Level Pressure 30.32 in    
Wind  
Wind Speed 16 mph (North)    
Max Wind Speed 38 mph    
Max Gust Speed 52 mph    
Visibility 10 miles    
Events      
T = Trace of Precipitation, MM = Missing Value Source: NWS Daily Summary

Daily Weather History Graph

Daily Weather History Graph

Search for Another Location

Airport or City:

Trip Planner

Search our weather history database for the weather conditions in past years. The results will help you decide how hot, cold, wet, or windy it might be!

Date:

Astronomy

Mar. 05, 2013 Rise Set
Actual Time 7:01 AM CST 6:39 PM CST
Civil Twilight 6:36 AM CST 7:04 PM CST
Nautical Twilight 6:08 AM CST 7:32 PM CST
Astronomical Twilight 5:39 AM CST 8:01 PM CST
Moon 2:00 AM CST (3/5) 12:35 PM CST (3/5)
Length of Visible Light 12h 27m
Length of Day
11h 38m
Last Quarter, 40% of the Moon is Illuminated
Mar 5
Last Quarter
Mar 11
New
Mar 19
First Quarter
Mar 27
Full
Apr 2
Last Quarter

Hourly Weather History & Observations

Time (CST) Temp. Windchill Dew Point Humidity Pressure Visibility Wind Dir Wind Speed Gust Speed Precip Events Conditions
1:52 AM 46.0 °F 36.9 °F 32.0 °F 58% 30.11 in 10.0 mi North 28.8 mph 43.7 mph N/A   Partly Cloudy
2:52 AM 44.1 °F 36.2 °F 32.0 °F 63% 30.14 in 10.0 mi North 18.4 mph 27.6 mph N/A   Partly Cloudy
3:52 AM 42.1 °F 33.1 °F 28.9 °F 60% 30.17 in 10.0 mi North 20.7 mph 29.9 mph N/A   Clear
4:52 AM 41.0 °F 32.2 °F 27.0 °F 57% 30.20 in 10.0 mi North 18.4 mph 27.6 mph N/A   Clear
5:52 AM 39.9 °F 31.4 °F 28.0 °F 63% 30.24 in 10.0 mi North 16.1 mph - N/A   Clear
6:52 AM 37.9 °F 30.0 °F 28.0 °F 68% 30.29 in 10.0 mi North 12.7 mph - N/A   Clear
7:52 AM 39.9 °F 32.1 °F 27.0 °F 60% 30.32 in 10.0 mi North 13.8 mph - N/A   Clear
8:52 AM 44.1 °F 36.2 °F 24.1 °F 45% 30.36 in 10.0 mi North 18.4 mph 33.4 mph N/A   Clear
9:52 AM 46.0 °F 37.0 °F 19.0 °F 34% 30.36 in 10.0 mi North 27.6 mph 32.2 mph N/A   Clear
10:52 AM 48.0 °F - 12.0 °F 24% 30.39 in 10.0 mi North 23.0 mph 31.1 mph N/A   Clear
11:52 AM 50.0 °F - 12.0 °F 22% 30.40 in 10.0 mi North 18.4 mph 27.6 mph N/A   Clear
1:52 PM 55.0 °F - 9.0 °F 16% 30.36 in 10.0 mi NNW 18.4 mph 27.6 mph N/A   Clear
2:52 PM 55.0 °F - 6.1 °F 14% 30.34 in 10.0 mi NNE 11.5 mph 24.2 mph N/A   Clear
3:52 PM 55.0 °F - 7.0 °F 15% 30.34 in 10.0 mi North 19.6 mph 24.2 mph N/A   Clear
4:52 PM 55.0 °F - 8.1 °F 15% 30.33 in 10.0 mi North 15.0 mph 24.2 mph N/A   Clear
5:52 PM 53.1 °F - 7.0 °F 16% 30.33 in 10.0 mi NNE 11.5 mph - N/A   Clear
6:52 PM 50.0 °F - 9.0 °F 19% 30.35 in 10.0 mi North 4.6 mph - N/A   Clear
8:52 PM 42.1 °F 40.2 °F 10.0 °F 27% 30.36 in 10.0 mi East 3.5 mph - N/A   Clear
9:52 PM 39.0 °F 35.7 °F 10.9 °F 32% 30.38 in 10.0 mi SSE 4.6 mph - N/A   Clear
10:52 PM 36.0 °F 31.1 °F 10.9 °F 36% 30.40 in 10.0 mi South 5.8 mph - N/A   Clear
11:52 PM 35.1 °F 29.3 °F 12.0 °F 39% 30.39 in 10.0 mi SE 6.9 mph - N/A   Clear